Regional Weather Roundup
Issued by NWS

Home | Current Version | Previous Version | Text Only | Print | Product List | Glossary Off
Versions: 1 2 3 4 5 6 7 8 9 10 11 12 13 14 15 16 17 18 19 20 21 22 23 24 25 26 27 28 29 30 31 32 33 34 35 36 37 38 39 40 41 42 43 44 45 46 47 48 49 50

000
ASUS45 KBOI 030910
RWRID

IDAHO REGIONAL WEATHER ROUNDUP
NATIONAL WEATHER SERVICE BOISE ID
200 AM MST SAT DEC 03 2016

NOTE: "FAIR" INDICATES FEW OR NO CLOUDS BELOW 12000 FEET
WITH NO SIGNIFICANT WEATHER AND/OR OBSTRUCTIONS TO VISIBILITY

IDZ012-014-031000-
SOUTHWEST IDAHO


CITY           SKY/WX    TMP DP  RH WIND       PRES   REMARKS
BOISE          CLOUDY    34  24  67 S6        30.26  WCI  29
CALDWELL       CLOUDY    34  26  72 SE7       30.28F WCI  28
MOUNTAIN HOME  CLOUDY    31  25  79 E7        30.26F WCI  24
$$

IDZ016-017-031000-
SOUTHCENTRAL IDAHO


CITY           SKY/WX    TMP DP  RH WIND       PRES   REMARKS
BURLEY         CLOUDY    30  19  63 SW14      30.22  WCI  19
JEROME         CLOUDY    29  19  66 SW6       30.24  WCI  23
TWIN FALLS     CLOUDY    31  17  56 S7        30.23  WCI  24
$$

IDZ019>023-031000-
SOUTHEAST IDAHO


CITY           SKY/WX    TMP DP  RH WIND       PRES   REMARKS
IDAHO FALLS    CLOUDY    25  20  81 SW15      30.19  WCI  13
POCATELLO      CLOUDY    25  18  74 SW7       30.23  WCI  17
REXBURG        CLOUDY    23  18  81 S10       30.17F WCI  12
$$

IDZ006-010-011-018-031-032-031000-
CENTRAL IDAHO MOUNTAINS


CITY           SKY/WX    TMP DP  RH WIND       PRES   REMARKS
MCCALL         NOT AVBL
HAILEY         CLOUDY    23  23 100 CALM      30.18F
STANLEY          N/A     23  14  68 W3        30.13F
SALMON         CLOUDY    28  19  69 CALM      30.12S
CHALLIS        CLOUDY    26  21  81 CALM      30.10
$$

IDZ002-004-006-007-026-031000-
NORTHERN IDAHO


CITY           SKY/WX    TMP DP  RH WIND       PRES   REMARKS
LEWISTON       CLOUDY    41  31  67 SW7       30.09
LOWELL           N/A     35  33  92 CALM      30.17F
COEUR D`ALENE  LGT RAIN  34  33  96 SE6       30.04S WCI  29
MULLAN PASS    LGT SNOW  23  21  92 W9        29.90F FOG     WCI  13
$$



USA.gov is the U.S. government's official web portal to all federal, state and local government web resources and services.